| time (UTC) | temp F | wind direction | speed knots | gust knots | rain 1hr in | rain 24hr in | rain mn in | humidity % | barometer mb |
| 20260506135109 | 57 | 33 | 5.2 | 7.0 | 0.00 | 0.00 | 0.00 | 80 | 1001.3 |
| 20260506134107 | 57 | 16 | 6.1 | 9.6 | 0.00 | 0.00 | 0.00 | 77 | 1001.3 |
| 20260506133102 | 58 | 3 | 4.3 | 7.0 | 0.00 | 0.00 | 0.00 | 76 | 1001.1 |
| 20260506132058 | 59 | 45 | 5.2 | 7.8 | 0.00 | 0.00 | 0.00 | 75 | 1001.0 |
| 20260506131055 | 59 | 30 | 4.3 | 7.0 | 0.00 | 0.00 | 0.00 | 73 | 1001.0 |
| 20260506130052 | 59 | 37 | 4.3 | 7.0 | 0.00 | 0.00 | 0.00 | 76 | 1001.0 |
| 20260506125048 | 58 | 25 | 4.3 | 7.0 | 0.00 | 0.00 | 0.00 | 77 | 1001.1 |
| 20260506124045 | 58 | 7 | 3.5 | 5.2 | 0.00 | 0.00 | 0.00 | 77 | 1001.3 |
| 20260506123041 | 58 | 8 | 4.3 | 6.1 | 0.00 | 0.00 | 0.00 | 77 | 1001.1 |
| 20260506122037 | 58 | 348 | 6.1 | 7.8 | 0.00 | 0.00 | 0.00 | 77 | 1001.0 |
| 20260506121034 | 58 | 344 | 5.2 | 7.8 | 0.00 | 0.00 | 0.00 | 76 | 1001.0 |
| 20260506120035 | 59 | 1 | 5.2 | 7.0 | 0.00 | 0.00 | 0.00 | 75 | 1000.9 |
| 20260506115026 | 59 | 352 | 6.1 | 9.6 | 0.00 | 0.00 | 0.00 | 72 | 1000.8 |
| 20260506114023 | 60 | 356 | 5.2 | 7.8 | 0.00 | 0.00 | 0.00 | 72 | 1000.7 |
| 20260506113120 | 60 | 15 | 5.2 | 7.8 | 0.00 | 0.00 | 0.00 | 70 | 1000.5 |
| 20260506112116 | 61 | 16 | 5.2 | 9.6 | 0.00 | 0.00 | 0.00 | 69 | 1000.3 |
| 20260506111113 | 60 | 18 | 7.0 | 9.6 | 0.00 | 0.00 | 0.00 | 70 | 1000.4 |
| 20260506110108 | 60 | 37 | 6.1 | 11.3 | 0.00 | 0.00 | 0.00 | 70 | 1000.4 |
| 20260506105105 | 60 | 27 | 6.1 | 9.6 | 0.00 | 0.00 | 0.00 | 71 | 1000.4 |
| 20260506104101 | 59 | 28 | 7.8 | 12.2 | 0.00 | 0.00 | 0.00 | 72 | 1000.3 |
| 20260506103058 | 58 | 17 | 5.2 | 8.7 | 0.00 | 0.00 | 0.00 | 73 | 1000.5 |
| 20260506102055 | 58 | 85 | 3.5 | 7.8 | 0.00 | 0.00 | 0.00 | 73 | 1000.7 |
| 20260506101051 | 58 | 54 | 3.5 | 7.8 | 0.00 | 0.00 | 0.00 | 73 | 1000.6 |
| 20260506100047 | 58 | 45 | 5.2 | 10.4 | 0.00 | 0.00 | 0.00 | 74 | 1000.5 |
| 20260506095043 | 57 | 65 | 6.1 | 9.6 | 0.00 | 0.00 | 0.00 | 75 | 1000.3 |
| 20260506094045 | 57 | 63 | 6.1 | 9.6 | 0.00 | 0.00 | 0.00 | 75 | 1000.5 |
| 20260506093036 | 57 | 67 | 8.7 | 12.2 | 0.00 | 0.00 | 0.00 | 74 | 1000.4 |
| 20260506092053 | 57 | 45 | 6.1 | 9.6 | 0.00 | 0.00 | 0.00 | 72 | 1000.7 |
| 20260506091030 | 57 | 60 | 5.2 | 8.7 | 0.00 | 0.00 | 0.00 | 72 | 1000.6 |
| 20260506090026 | 57 | 52 | 7.0 | 10.4 | 0.00 | 0.00 | 0.00 | 71 | 1000.7 |
| 20260506085023 | 58 | 69 | 6.1 | 9.6 | 0.00 | 0.00 | 0.00 | 71 | 1000.7 |
| 20260506084119 | 58 | 45 | 6.1 | 10.4 | 0.00 | 0.00 | 0.00 | 71 | 1000.5 |
| 20260506083115 | 58 | 90 | 6.1 | 8.7 | 0.00 | 0.00 | 0.00 | 71 | 1000.6 |
| 20260506082112 | 57 | 45 | 7.0 | 11.3 | 0.00 | 0.00 | 0.00 | 73 | 1000.5 |
| 20260506081108 | 57 | 62 | 6.1 | 8.7 | 0.00 | 0.00 | 0.00 | 74 | 1000.5 |
| 20260506080104 | 56 | 92 | 6.1 | 9.6 | 0.00 | 0.00 | 0.00 | 74 | 1000.5 |
| 20260506073054 | 56 | 90 | 7.8 | 13.0 | 0.00 | 0.00 | 0.00 | 75 | 1000.1 |
| 20260506072049 | 55 | 54 | 7.8 | 13.9 | 0.00 | 0.00 | 0.00 | 79 | 1000.2 |
| 20260506071046 | 54 | 76 | 8.7 | 12.2 | 0.00 | 0.00 | 0.00 | 81 | 1000.5 |
| 20260506062028 | 50 | 52 | 9.6 | 14.8 | 0.00 | 0.00 | 0.00 | 90 | 1001.0 |
| 20260506061024 | 50 | 51 | 7.8 | 13.0 | 0.00 | 0.00 | 0.00 | 90 | 1001.2 |
| 20260506060121 | 49 | 53 | 9.6 | 13.9 | 0.00 | 0.00 | 0.00 | 91 | 1001.3 |
| 20260506051143 | 48 | 24 | 8.7 | 14.8 | 0.00 | 0.00 | 0.00 | 95 | 1001.6 |
| 20260506045100 | 47 | 45 | 5.2 | 10.4 | 0.00 | 0.00 | 0.00 | 97 | 1002.0 |
| 20260506044052 | 47 | 45 | 7.0 | 8.7 | 0.00 | 0.00 | 0.00 | 98 | 1002.2 |
| 20260506043048 | 47 | 42 | 6.1 | 10.4 | 0.00 | 0.00 | 0.00 | 98 | 1002.2 |
| 20260506042044 | 47 | 108 | 8.7 | 11.3 | 0.00 | 0.00 | 0.00 | 99 | 1002.3 |
| 20260506041041 | 47 | 45 | 7.0 | 9.6 | 0.00 | 0.00 | 0.00 | 99 | 1002.6 |
| 20260506040037 | 47 | 45 | 7.0 | 9.6 | 0.00 | 0.00 | 0.00 | 99 | 1002.4 |
| 20260506035034 | 47 | 34 | 7.0 | 9.6 | 0.00 | 0.00 | 0.00 | 99 | 1002.4 |
| 20260506034029 | 47 | 50 | 5.2 | 9.6 | 0.00 | 0.00 | 0.00 | 99 | 1002.4 |
| 20260506033031 | 47 | 60 | 7.0 | 13.0 | 0.00 | 0.00 | 0.00 | 99 | 1002.5 |
| 20260506032023 | 47 | 70 | 7.8 | 12.2 | 0.00 | 0.00 | 0.00 | 99 | 1002.5 |
| 20260506031119 | 47 | 38 | 7.0 | 11.3 | 0.00 | 0.00 | 0.00 | 99 | 1002.6 |
| 20260506030116 | 47 | 31 | 7.8 | 11.3 | 0.00 | 0.00 | 0.00 | 99 | 1002.7 |
| 20260506025152 | 47 | 37 | 6.1 | 11.3 | 0.00 | 0.00 | 0.00 | 99 | 1002.8 |
| 20260506024128 | 47 | 43 | 7.8 | 13.0 | 0.00 | 0.00 | 0.00 | 99 | 1002.8 |
| 20260506023126 | 47 | 50 | 7.8 | 11.3 | 0.00 | 0.00 | 0.00 | 99 | 1003.0 |
| 20260506022101 | 47 | 27 | 6.1 | 10.4 | 0.00 | 0.00 | 0.00 | 99 | 1003.1 |
| 20260506021057 | 47 | 56 | 8.7 | 13.0 | 0.00 | 0.00 | 0.00 | 99 | 1003.1 |
| 20260506020054 | 47 | 54 | 7.0 | 13.0 | 0.00 | 0.00 | 0.00 | 99 | 1003.2 |
| 20260506015051 | 47 | 207 | 6.1 | 9.6 | 0.00 | 0.00 | 0.00 | 99 | 1003.4 |
| 20260506014047 | 0 | 0.0 | 0.0 | 0.00 | 0.00 | 0.00 | 1003.4 | ||
| 20260506013103 | 0 | 0.0 | 0.0 | 0.00 | 0.00 | 0.00 | 1003.2 | ||
| 20260506012040 | 0 | 0.0 | 0.0 | 0.00 | 0.00 | 0.00 | 1003.2 | ||
| 20260506011036 | 0 | 0.0 | 0.0 | 0.00 | 0.00 | 0.00 | 1003.3 | ||
| 20260506010032 | 0 | 0.0 | 0.0 | 0.00 | 0.00 | 0.00 | 1003.4 | ||
| 20260506005049 | 0 | 0.0 | 0.0 | 0.00 | 0.00 | 0.00 | 1003.5 | ||
| 20260506004046 | 0 | 0.0 | 0.0 | 0.00 | 0.00 | 0.00 | 1003.5 | ||
| 20260506003021 | 0 | 0.0 | 0.0 | 0.00 | 0.00 | 0.00 | 1003.9 | ||
| 20260506002139 | 0 | 0.0 | 0.0 | 0.00 | 0.00 | 0.00 | 1003.9 | ||
| 20260506001114 | 49 | 68 | 4.3 | 6.1 | 0.00 | 0.00 | 0.00 | 99 | 1003.9 |
| 20260506000111 | 49 | 45 | 6.1 | 12.2 | 0.00 | 0.00 | 0.00 | 99 | 1004.2 |
| 20260505235107 | 49 | 39 | 6.1 | 11.3 | 0.00 | 0.00 | 0.00 | 99 | 1004.3 |
| 20260505234109 | 49 | 44 | 6.1 | 11.3 | 0.00 | 0.00 | 0.00 | 99 | 1004.3 |
| 20260505233120 | 49 | 48 | 6.1 | 9.6 | 0.00 | 0.00 | 0.00 | 99 | 1004.4 |
| 20260505232057 | 49 | 32 | 5.2 | 8.7 | 0.00 | 0.00 | 0.00 | 99 | 1004.2 |
| 20260505231113 | 49 | 41 | 7.0 | 13.0 | 0.00 | 0.00 | 0.00 | 99 | 1004.2 |
| 20260505230131 | 48 | 38 | 5.2 | 8.7 | 0.00 | 0.00 | 0.00 | 99 | 1004.1 |
| 20260505225046 | 48 | 63 | 5.2 | 11.3 | 0.00 | 0.00 | 0.00 | 99 | 1004.1 |
| 20260505224042 | 48 | 31 | 6.1 | 9.6 | 0.00 | 0.00 | 0.00 | 99 | 1004.2 |
| 20260505223100 | 48 | 45 | 7.0 | 9.6 | 0.00 | 0.00 | 0.00 | 99 | 1004.3 |
| 20260505222035 | 48 | 53 | 7.0 | 10.4 | 0.00 | 0.00 | 0.00 | 99 | 1004.3 |
| 20260505221031 | 48 | 35 | 5.2 | 9.6 | 0.00 | 0.00 | 0.00 | 99 | 1004.4 |
| 20260505220027 | 49 | 19 | 5.2 | 9.6 | 0.00 | 0.00 | 0.00 | 99 | 1004.5 |
| 20260505215025 | 49 | 44 | 6.1 | 9.6 | 0.00 | 0.00 | 0.00 | 99 | 1004.4 |
| 20260505214121 | 49 | 71 | 7.0 | 13.0 | 0.00 | 0.00 | 0.00 | 98 | 1004.4 |
| 20260505213117 | 49 | 61 | 7.0 | 9.6 | 0.00 | 0.00 | 0.00 | 98 | 1004.4 |
| 20260505212133 | 49 | 78 | 6.1 | 10.4 | 0.00 | 0.00 | 0.00 | 98 | 1004.5 |
| 20260505211109 | 49 | 45 | 5.2 | 8.7 | 0.00 | 0.00 | 0.00 | 98 | 1004.6 |
| 20260505210108 | 49 | 39 | 7.0 | 11.3 | 0.00 | 0.00 | 0.00 | 98 | 1004.6 |
| 20260505205102 | 49 | 36 | 5.2 | 9.6 | 0.00 | 0.00 | 0.00 | 98 | 1004.6 |
| 20260505204059 | 50 | 31 | 4.3 | 7.0 | 0.00 | 0.00 | 0.00 | 98 | 1004.7 |
| 20260505203116 | 50 | 57 | 4.3 | 7.8 | 0.00 | 0.00 | 0.00 | 98 | 1004.8 |
| 20260505202051 | 50 | 45 | 6.1 | 9.6 | 0.00 | 0.00 | 0.00 | 98 | 1004.6 |
| 20260505201047 | 50 | 44 | 4.3 | 9.6 | 0.00 | 0.00 | 0.00 | 97 | 1004.7 |
| 20260505200105 | 49 | 62 | 4.3 | 9.6 | 0.00 | 0.00 | 0.00 | 97 | 1004.6 |
| 20260505195040 | 49 | 21 | 3.5 | 5.2 | 0.00 | 0.00 | 0.00 | 97 | 1004.7 |
| 20260505194042 | 49 | 68 | 4.3 | 7.0 | 0.00 | 0.00 | 0.00 | 97 | 1004.6 |
| 20260505193033 | 49 | 33 | 5.2 | 8.7 | 0.00 | 0.00 | 0.00 | 97 | 1004.6 |
| 20260505192029 | 49 | 17 | 4.3 | 7.0 | 0.00 | 0.00 | 0.00 | 96 | 1004.6 |
| 20260505191027 | 49 | 59 | 4.3 | 7.0 | 0.00 | 0.00 | 0.00 | 96 | 1004.4 |
| 20260505190043 | 49 | 14 | 4.3 | 7.0 | 0.00 | 0.00 | 0.00 | 95 | 1004.6 |
| 20260505185120 | 50 | 41 | 5.2 | 7.8 | 0.00 | 0.00 | 0.00 | 95 | 1004.4 |
| 20260505184115 | 50 | 45 | 5.2 | 7.8 | 0.00 | 0.00 | 0.00 | 94 | 1004.3 |
| 20260505183112 | 50 | 47 | 5.2 | 10.4 | 0.00 | 0.00 | 0.00 | 94 | 1004.1 |
| 20260505182108 | 50 | 45 | 7.0 | 9.6 | 0.00 | 0.00 | 0.00 | 93 | 1004.1 |
| 20260505181105 | 50 | 52 | 7.0 | 9.6 | 0.00 | 0.00 | 0.00 | 93 | 1004.1 |
| 20260505180121 | 50 | 45 | 6.1 | 9.6 | 0.00 | 0.00 | 0.00 | 92 | 1004.2 |
| 20260505175058 | 50 | 35 | 6.1 | 9.6 | 0.00 | 0.00 | 0.00 | 92 | 1004.1 |
| 20260505174059 | 50 | 50 | 6.1 | 9.6 | 0.00 | 0.00 | 0.00 | 92 | 1004.1 |
| 20260505173050 | 50 | 37 | 7.0 | 10.4 | 0.00 | 0.00 | 0.00 | 91 | 1004.2 |
| 20260505172046 | 50 | 54 | 6.1 | 9.6 | 0.00 | 0.00 | 0.00 | 91 | 1004.1 |
| 20260505171042 | 50 | 43 | 7.0 | 10.4 | 0.00 | 0.00 | 0.00 | 90 | 1004.3 |
| 20260505170039 | 51 | 37 | 7.0 | 9.6 | 0.00 | 0.00 | 0.00 | 88 | 1004.2 |
| 20260505165035 | 51 | 53 | 8.7 | 14.8 | 0.00 | 0.00 | 0.00 | 87 | 1004.0 |
| 20260505164031 | 51 | 48 | 6.1 | 12.2 | 0.00 | 0.00 | 0.00 | 86 | 1004.1 |
| 20260505163028 | 51 | 19 | 6.1 | 11.3 | 0.00 | 0.00 | 0.00 | 85 | 1004.2 |
| 20260505162025 | 51 | 45 | 7.0 | 12.2 | 0.00 | 0.00 | 0.00 | 82 | 1004.2 |
| 20260505161021 | 52 | 72 | 7.0 | 13.0 | 0.00 | 0.00 | 0.00 | 82 | 1004.4 |
| 20260505160117 | 53 | 55 | 6.1 | 10.4 | 0.00 | 0.00 | 0.00 | 84 | 1004.3 |
| 20260505153147 | 55 | 46 | 6.1 | 10.4 | 0.00 | 0.00 | 0.00 | 83 | 1004.7 |
| 20260505152103 | 55 | 22 | 6.1 | 9.6 | 0.00 | 0.00 | 0.00 | 81 | 1004.7 |
| 20260505151100 | 55 | 8 | 7.8 | 13.0 | 0.00 | 0.00 | 0.00 | 79 | 1004.9 |
| 20260505150121 | 56 | 8 | 6.1 | 11.3 | 0.00 | 0.00 | 0.00 | 79 | 1004.8 |